Regional Weather Roundup
Issued by NWS Jackson, KY

Home | Current Version | Previous Version | Text Only | Print | Product List | Glossary On
Versions: 1 2 3 4 5 6 7 8 9 10 11 12 13 14 15 16 17 18 19 20 21 22 23 24 25 26 27
000
ASUS43 KJKL 191710
RWRJKL

EAST KENTUCKY HOURLY WEATHER ROUNDUP
NATIONAL WEATHER SERVICE JACKSON KY
1200 PM EST SUN NOV 19 2017

NOTE: "FAIR" INDICATES FEW OR NO CLOUDS BELOW 12,000 FEET WITH
NO SIGNIFICANT WEATHER AND/OR OBSTRUCTIONS TO VISIBILITY.

* THESE REPORTS ARE NOT UNDER NWS QUALITY CONTROL AND MAY NOT
  REPORT WEATHER SUCH AS PRECIPITATION AND FOG.

KYZ079-080-083-085-087-088-110-112-115-119-120-191800
...EASTERN KENTUCKY...

CITY           SKY/WX    TMP DP  RH WIND       PRES   REMARKS
JACKSON        CLOUDY    39  28  64 VRB6      30.02S WCI  35
LONDON         CLOUDY    41  30  65 W10       30.06S
SOMERSET*      CLOUDY    39  30  70 W9        30.10S WCI  33
MONTICELLO*    CLOUDY    41  33  73 W8        30.10F
WILLIAMSBURG*  CLOUDY    39  32  75 W7        30.07S WCI  34
MIDDLESBORO*   CLOUDY    41  31  66 CALM      30.07F
HARLAN APT*    CLOUDY    37  30  75 W8G18     30.04S WCI  31
PIKE CO APT*   CLOUDY    37  31  80 W9        30.00S WCI  30
BIG SANDY APT* CLOUDY    39  31  72 W5        30.01R
MOREHEAD APT*  CLOUDY    39  30  70 W7G14     30.03F WCI  34
$$

KYZ035-036-041-042-044-050-067-078-099-191800
...CENTRAL KENTUCKY...

CITY           SKY/WX    TMP DP  RH WIND       PRES   REMARKS
MT STERLING*   CLOUDY    39  32  75 NW9G20    30.05S WCI  33
FLEMING/MASON* CLOUDY    38  32  78 W16       30.03S WCI  29
DANVILLE*      CLOUDY    37  32  81 W8        30.09R WCI  31
LEXINGTON      CLOUDY    38  30  73 NW13G21   30.07R WCI  30
FRANKFORT      CLOUDY    38  29  70 NW9       30.08R WCI  31
LOUISVILLE     CLOUDY    38  30  73 W13       30.11S WCI  30
LEBANON*       CLOUDY    37  28  70 W12G18    30.11R WCI  30
GLASGOW*       CLOUDY    39  30  70 W10G16    30.14R WCI  32
BOWLING GREEN  PTSUNNY   41  29  62 NW9G17    30.17R
$$

KYZ091>093-OHZ055-061-077-WVZ005-015-034-035-042-191800
...SOUTHERN OHIO/WEST VIRGINIA...

CITY           SKY/WX    TMP DP  RH WIND       PRES   REMARKS
COVINGTON      CLOUDY    36  28  73 NW20      30.04R WCI  25
COLUMBUS       CLOUDY    41  32  70 W17       29.92R
DAYTON         CLOUDY    36  31  82 W20G26    29.98F WCI  25
WILMINGTON     LGT RAIN  36  33  89 W15       29.98R WCI  27
HUNTINGTON     CLOUDY    42  28  57 W13       29.98S
CHARLESTON     CLOUDY    41  27  57 W8G21     29.96S
PINEVILLE*       N/A     37  29  71 MISG      30.00F
BECKLEY        CLOUDY    33  28  81 W15       29.90S WCI  23
BLUEFIELD      CLOUDY    31  26  82 NW14G22   29.90S WCI  21
LOGAN CO APT*  CLOUDY    37  30  75 CALM      29.96S
$$

VAZ002-007-008-TNZ017-027-036-066-071-191800
...SOUTHWEST VIRGINIA/EAST TENNESSEE...

CITY           SKY/WX    TMP DP  RH WIND       PRES   REMARKS
WISE*          CLOUDY    34  34 100 W6        29.98S WCI  29
JONESVILLE*    CLOUDY    41  28  60 W7        30.07S
ABINGDON*      LGT RAIN  38  34  85 NW6       29.97S WCI  34
BRISTOL        CLOUDY    44  31  60 W17G23    30.01R
MORRISTOWN*    CLOUDY    41  30  65 N13G18    30.05S
SEVIERVILLE*   CLOUDY    45  32  61 NW6       30.07F
KNOXVILLE      CLOUDY    44  35  70 NW8       30.07S
OAK RIDGE      CLOUDY    46  31  55 W8        30.10S
CROSSVILLE     CLOUDY    37  29  72 NW9       30.08S WCI  30
NASHVILLE      MOSUNNY   45  25  45 NW13G20   30.17R
$$

...KEY TO REMARKS...
VSB - VISIBILITY IN MILES
WCI - WIND CHILL INDEX
HX  - HEAT INDEX

$$




USA.gov is the U.S. government's official web portal to all federal, state and local government web resources and services.